GSAT0224 (GALILEO 28)

Last updated on Fri Jun 19 2026 17:09:21 GMT+0000 (Coordinated Universal Time)

1 49810U 21116B 26168.98509303 -.00000091 00000+0 00000+0 0 9992 2 49810 57.1613 341.6514 0001177 159.9709 202.1698 1.70475877 28225
UTC large
Height (km)
Speed (km/s)
/
Latitude / Longitude
Inclination (degrees)
Orbital Period (minutes)
Azimuth
Elevation
Range (km)
Doppler Factor

Next 0 passes for location: London (51.5072 / 0.1276)

No passes found over London.
GSAT0224 (GALILEO 28)